Temp
12 12 12 13 13 12 12 13 13 12 12 13 13 14 14 15 15 16 17 18 19 19 18 18 19 18 18 18 17 16 17 17 16 16 17 17 17 16 16 16 16 16 16 16 17 17 16 16 16 16 16 15 15 15 15 15 14 14 14 13 13 13 12 12 11 11 10 10 10 10 10 11 12 11
12 12 12 12 12 12 12 12 12 12 12 12 13 13 13 14 14 15 16 16 18 18 18 18 18 18 17 17 16 16 16 16 16 16 16 16 17 16 16 16 16 16 16 16 16 16 16 16 16 16 15 15 15 15 14 14 14 14 14 13 13 13 13 12 12 11 11 10 10 9 10 10 11 11
12 12 12 12 12 11 12 12 12 12 12 12 13 13 13 13 14 14 14 15 16 17 17 17 17 17 16 16 16 16 16 16 16 15 16 16 16 16 16 16 16 16 16 16 16 16 16 16 16 16 16 16 15 15 15 14 14 14 14 14 13 13 13 13 12 12 11 11 10 10 10 10 11 11
12 12 12 12 12 11 12 12 12 12 12 12 12 13 13 13 13 13 14 14 15 16 16 16 16 16 16 15 15 15 16 16 16 15 16 16 16 16 17 17 17 16 16 16 16 16 16 16 16 16 16 15 15 15 15 14 14 14 14 14 14 13 13 13 13 12 12 11 10 10 10 10 11 11
12 12 12 12 11 11 11 12 12 12 12 12 12 13 13 13 13 13 14 14 15 15 15 15 15 15 15 15 15 15 15 15 15 15 15 16 16 16 17 17 17 17 16 16 16 16 16 16 16 16 16 15 15 15 15 14 14 14 14 14 14 14 13 13 13 12 12 11 11 10 10 10 10 11
11 11 11 12 11 11 11 11 11 12 12 12 13 13 13 13 13 13 13 14 14 15 14 14 14 14 14 14 15 15 15 15 15 15 15 16 16 17 17 17 17 17 16 16 16 16 16 16 16 16 15 15 15 15 15 15 14 14 14 14 14 14 13 13 13 13 12 12 11 11 10 10 10 10
12 11 11 11 11 11 11 11 11 11 11 12 12 12 12 13 13 12 13 13 13 14 14 14 14 14 14 14 14 14 14 14 14 14 15 15 16 17 17 17 17 17 16 16 15 15 15 15 15 16 16 15 15 15 15 14 14 14 13 13 13 13 13 13 13 13 13 12 11 11 11 10 10 10
11 11 11 11 11 11 11 11 11 11 11 11 11 12 12 12 12 12 12 12 12 13 13 13 14 14 14 14 14 14 14 14 14 14 15 15 16 16 16 17 17 17 16 15 15 15 15 15 15 15 15 15 15 15 15 15 14 14 13 13 13 13 13 13 13 13 13 13 12 11 11 11 11 10
11 11 11 11 11 10 10 10 11 11 11 10 11 11 11 12 12 12 11 12 12 12 12 13 13 13 13 13 14 14 14 14 15 15 15 15 15 16 16 16 16 16 16 15 15 15 15 15 15 15 15 15 15 15 15 15 15 14 14 13 13 13 13 13 13 13 13 13 12 11 11 11 11 10
10 10 10 10 10 10 10 10 10 10 10 10 10 10 10 11 11 11 11 11 11 12 12 12 12 13 13 13 13 14 14 14 14 14 14 15 15 15 15 15 16 16 16 15 15 15 14 14 14 14 15 15 15 15 15 15 15 15 14 14 13 13 13 13 13 12 12 12 12 12 11 11 11 11
10 10 10 10 10 10 10 10 10 9 9 9 9 9 9 10 10 10 10 11 11 11 12 12 12 13 13 13 13 13 13 13 13 14 14 14 15 15 15 15 16 16 16 15 15 15 15 14 14 14 14 14 15 15 15 15 15 15 15 14 14 13 12 12 13 12 12 12 12 12 11 11 11 11
9 9 9 9 9 9 9 9 9 9 8 8 9 9 9 9 9 10 10 10 11 11 11 12 12 12 13 13 13 13 13 13 14 14 14 14 15 15 15 15 15 15 16 16 16 15 15 15 14 14 14 14 14 15 15 15 15 15 15 15 14 13 13 12 12 12 12 12 12 11 11 11 11 11
9 9 9 9 9 8 8 8 8 8 8 7 7 8 8 9 9 9 10 10 11 11 11 12 12 12 13 13 13 13 13 13 13 13 13 13 14 14 14 14 14 15 15 15 16 16 15 15 15 15 14 15 15 14 14 14 15 15 15 15 14 14 13 12 12 12 11 11 11 11 11 11 11 11
9 9 9 9 8 7 7 7 7 7 7 7 6 6 7 7 8 8 9 9 10 10 11 12 12 12 13 13 13 13 13 12 12 12 12 12 13 13 14 14 14 14 15 15 15 16 16 16 16 16 15 15 15 14 14 14 14 15 15 15 15 14 14 13 12 12 11 11 11 11 11 11 11 11
9 9 9 8 8 7 7 7 7 6 6 6 5 5 5 5 5 6 7 8 9 9 10 11 11 12 12 12 12 12 12 12 12 12 12 12 12 13 13 14 14 15 14 15 15 15 16 16 16 16 16 15 15 14 14 14 13 14 14 14 14 14 14 13 12 12 11 11 11 11 11 11 11 11
8 8 8 8 8 7 7 6 6 6 6 5 5 5 4 4 4 4 4 5 6 7 8 9 10 10 11 11 11 11 11 11 11 11 11 11 11 12 13 13 14 14 14 14 14 15 15 15 16 16 16 15 15 14 14 13 13 12 13 13 13 13 13 13 12 12 11 11 11 11 11 10 10 10
8 8 8 7 7 7 6 6 6 6 6 6 5 5 4 4 4 4 4 4 4 5 6 7 8 9 9 10 10 10 10 10 10 10 10 10 11 11 12 12 13 13 13 13 14 14 14 14 15 15 15 15 14 14 14 13 12 12 12 12 12 12 12 12 12 11 11 11 11 10 10 10 10 9
7 7 7 7 7 7 6 6 6 6 6 6 5 5 5 5 5 5 5 4 4 4 4 5 6 6 7 8 8 9 9 9 9 9 9 10 10 10 11 11 11 11 12 12 12 13 14 14 14 15 15 15 14 14 13 13 12 11 11 11 11 11 11 11 11 11 11 11 10 10 9 9 9 9
6 6 6 6 6 6 6 6 5 5 4 4 4 5 5 5 5 6 6 5 5 5 4 4 5 5 6 6 6 7 7 7 7 8 8 9 9 9 9 9 9 10 10 10 11 12 13 13 14 15 15 15 15 14 13 12 11 10 11 11 11 10 10 10 10 10 10 10 10 9 9 8 8 7
6 6 6 6 6 5 5 5 4 3 3 3 3 4 4 4 5 5 5 5 5 5 5 4 4 5 5 5 5 5 4 4 4 5 6 7 8 8 8 9 9 9 10 10 10 11 12 13 14 14 15 15 15 14 12 11 10 10 10 11 11 11 10 10 10 10 10 10 9 9 8 7 7 6
6 6 5 5 5 5 5 4 4 3 2 2 3 3 4 4 4 5 5 5 4 4 4 4 4 3 3 4 4 4 4 4 3 3 4 6 7 8 9 9 9 10 10 11 11 11 12 13 13 14 14 15 15 14 12 11 10 9 9 10 11 11 11 10 10 9 9 9 9 8 8 7 7 6
6 6 5 4 4 4 4 4 3 3 2 2 3 3 3 3 4 4 4 4 4 4 4 3 3 3 3 3 3 3 3 3 3 2 3 4 6 7 8 9 9 10 11 11 11 12 12 13 13 14 14 14 14 13 12 11 9 9 9 9 10 10 10 10 10 9 9 8 8 7 7 7 6 5
6 6 6 5 4 4 4 3 3 2 1 1 2 2 2 2 2 3 3 3 3 3 3 3 3 3 3 2 2 2 2 2 2 2 2 4 5 6 7 8 8 10 10 11 11 12 12 13 13 13 14 14 14 13 12 10 8 7 7 8 9 10 10 9 9 8 8 7 7 6 6 5 5 4
6 6 6 6 5 4 4 3 2 2 1 1 1 1 1 1 1 2 2 2 2 2 2 2 2 2 3 3 3 2 2 2 2 2 2 3 4 5 6 6 8 9 10 11 11 12 12 13 13 13 13 14 15 14 11 8 6 6 6 6 7 9 9 8 7 7 6 6 6 6 5 5 4 4
6 6 6 6 5 4 3 2 2 1 1 0 -0 0 0 0 0 0 0 1 1 0 1 1 1 1 2 2 2 3 3 3 3 3 3 3 3 4 5 6 7 8 9 10 10 11 12 13 13 14 14 14 15 14 10 7 5 5 5 6 6 7 7 7 6 5 5 5 5 5 4 4 4 4
5 5 5 5 4 3 2 2 1 1 0 -1 -1 -1 -1 -1 -1 -1 -1 -1 -0 -0 0 1 1 1 2 2 2 3 3 3 3 3 3 3 3 3 4 5 6 7 8 9 9 9 11 12 12 13 14 14 15 14 11 8 6 5 5 5 5 5 6 6 5 4 3 3 3 3 3 2 2 3
4 4 4 4 3 2 1 1 0 -0 -1 -1 -1 -1 -1 -1 -2 -2 -2 -1 -1 -0 0 0 1 1 1 2 2 2 3 3 3 3 3 3 3 3 4 4 5 6 7 8 8 9 9 10 10 11 12 13 14 14 12 9 7 5 5 4 4 4 4 5 4 3 3 2 2 1 1 1 1 2
3 3 3 2 2 1 0 -0 -1 -1 -1 -1 -1 -1 -1 -1 -1 -2 -1 -1 -1 -0 -0 0 0 1 1 1 2 2 3 3 3 3 3 3 3 3 4 4 4 5 5 6 7 8 8 9 9 10 10 11 12 13 12 10 7 5 4 4 3 3 3 3 3 2 2 2 1 1 0 0 1 1
2 2 1 1 0 -0 -0 -0 -1 -0 -0 -0 -0 -0 -1 -1 -1 -1 -1 -1 -0 -0 -0 -0 0 0 1 1 1 2 2 2 2 3 3 3 3 3 3 3 4 4 4 4 5 6 7 8 8 8 9 10 11 11 11 10 7 5 4 4 3 3 2 2 2 1 1 1 1 0 1 1 1 1
2 2 2 1 0 0 -0 -0 0 0 0 0 -0 -0 -0 -0 -0 -0 -0 0 0 0 0 0 0 1 1 1 1 1 2 2 2 2 2 2 2 2 3 3 3 4 4 4 4 5 6 7 7 8 8 9 9 9 10 10 8 6 4 4 3 2 2 1 1 1 0 0 -0 -0 0 1 1 1
3 2 1 1 0 0 0 1 1 1 1 1 1 1 1 1 1 1 1 1 1 1 1 1 1 1 1 1 1 1 1 1 2 2 2 2 2 2 2 3 3 4 4 4 4 4 5 5 6 7 7 8 8 8 8 9 8 6 4 4 3 3 2 1 1 1 0 -0 -0 -0 -0 0 1 1
1 0 1 1 1 1 1 1 1 1 1 1 1 1 1 1 1 1 1 1 1 1 1 1 1 1 1 1 1 1 1 1 1 1 1 1 1 1 2 2 3 3 4 4 4 4 4 5 5 6 6 7 7 7 8 8 8 6 4 3 3 3 2 1 1 1 0 -0 -0 -0 -0 -0 -0 0
-1 -0 1 1 1 1 1 1 1 1 1 1 1 1 1 1 1 1 1 1 1 1 1 1 1 0 0 0 1 1 1 1 1 1 1 0 1 1 1 2 2 3 3 4 4 4 5 5 5 5 5 6 6 6 7 6 6 5 4 3 2 2 1 1 1 0 0 -0 -0 -0 -0 -1 -1 -0
-1 1 2 2 2 1 1 1 1 1 1 1 1 1 1 0 0 0 0 0 0 0 0 0 -0 -0 -0 -0 0 0 0 0 0 0 0 0 0 0 1 1 2 2 3 3 4 4 5 5 5 4 5 5 5 5 6 6 5 4 3 3 2 2 1 1 1 0 0 0 0 -0 -0 -0 -0 -0
0 2 2 2 2 1 1 1 1 1 0 0 0 0 -0 -0 -0 -0 -0 -0 -0 -0 -0 -0 -1 -1 -1 -1 -0 -0 -0 -0 -0 -0 -0 -0 -0 0 0 1 1 2 2 3 4 4 4 5 5 4 5 5 5 5 5 5 4 3 3 2 2 2 1 1 0 0 0 1 0 0 0 0 -0 0
1 2 2 1 1 1 1 1 1 0 0 -0 -0 -0 -0 -0 -1 -1 -1 -1 -1 -1 -1 -1 -1 -1 -1 -1 -1 -1 -1 -1 -1 -1 -0 -0 -0 -0 0 0 1 1 2 2 3 3 4 5 5 4 5 5 5 5 5 4 4 4 3 2 2 1 1 1 0 0 1 1 1 1 1 0 0 0
2 2 1 1 1 1 1 0 0 -0 -0 -1 -1 -1 -1 -1 -1 -1 -1 -1 -1 -1 -1 -1 -1 -1 -1 -1 -1 -1 -1 -1 -1 -1 -0 -0 -0 -0 -0 0 0 1 1 1 2 3 4 4 4 4 5 4 5 5 4 3 3 4 4 3 2 1 1 1 0 1 1 1 1 1 1 0 0 -0
2 1 1 1 1 1 0 0 -0 -1 -1 -1 -1 -1 -1 -1 -1 -1 -1 -1 -2 -2 -2 -1 -1 -1 -1 -1 -1 -1 -0 -0 -0 -0 -0 -0 -0 -0 -0 0 0 1 1 1 2 2 3 3 3 4 4 4 5 6 4 2 2 3 3 4 3 1 0 0 1 1 1 1 1 1 0 0 -0 -0
1 1 1 0 0 0 0 -0 -1 -1 -1 -1 -1 -1 -2 -2 -2 -2 -2 -2 -2 -2 -2 -2 -1 -1 -1 -1 -1 -1 -1 -0 -0 -0 -0 -0 -0 -0 0 0 1 1 1 1 2 2 3 3 3 3 4 4 5 6 5 3 2 2 2 3 3 2 0 1 1 1 1 0 0 -0 -0 -0 -1 -1
1 0 0 0 -0 -0 -0 -0 -1 -1 -2 -2 -2 -2 -2 -2 -2 -2 -2 -2 -2 -2 -2 -2 -2 -2 -1 -1 -1 -1 -1 -1 -0 -0 -0 0 -0 0 0 1 1 1 1 2 2 2 3 3 3 3 3 4 4 5 4 2 1 1 1 2 3 3 2 1 1 1 0 -0 -0 -1 -1 -1 -1 -1
1 0 -0 -0 -0 -0 -1 -1 -1 -2 -2 -2 -2 -2 -2 -2 -2 -2 -2 -2 -2 -2 -2 -2 -1 -1 -1 -1 -1 -1 -1 -1 -0 -0 -0 0 0 0 0 1 1 1 2 2 2 3 3 3 3 3 3 3 3 4 3 2 1 1 0 0 1 2 2 1 1 1 0 -0 -0 -1 -2 -2 -2 -2
0 0 -0 -1 -1 -1 -1 -1 -2 -2 -2 -2 -2 -2 -2 -2 -2 -2 -2 -2 -2 -2 -2 -1 -1 -1 -1 -1 -1 -1 -1 -1 -0 -0 -0 -0 0 0 1 1 1 1 2 2 3 3 3 3 3 3 3 3 3 3 3 2 1 -0 -0 -0 0 1 1 1 1 0 0 0 -0 -1 -1 -1 -1 -1
0 -0 -0 -1 -1 -1 -1 -1 -2 -2 -2 -2 -2 -2 -2 -2 -2 -2 -2 -2 -2 -2 -2 -1 -1 -1 -1 -0 -0 -0 -1 -1 -0 -0 -0 -0 0 1 1 1 1 1 2 2 3 3 3 3 3 3 2 3 3 3 2 1 0 -1 -1 -1 -0 -0 -0 -0 -0 -0 -0 0 0 -0 -1 -1 -1 -1
-0 -1 -1 -1 -1 -1 -1 -2 -2 -2 -2 -2 -2 -2 -2 -2 -2 -2 -2 -2 -2 -2 -2 -2 -1 -1 -1 -0 -0 -0 -1 -1 -0 -0 -0 -0 0 1 1 1 1 1 2 2 2 2 2 2 2 2 2 2 3 2 1 0 -0 -1 -1 -1 -1 -1 -1 -1 -1 -1 -1 -1 -0 0 -0 -0 0 0
-0 -1 -1 -1 -1 -1 -2 -2 -2 -2 -2 -2 -2 -3 -2 -2 -2 -2 -2 -2 -2 -2 -2 -2 -1 -1 -0 0 -0 -0 -0 -0 -0 -0 -0 0 0 0 1 1 1 1 2 2 1 1 1 1 1 2 2 2 1 1 0 -0 -1 -1 -1 -1 -1 -2 -2 -1 -1 -1 -1 -1 -1 0 1 1 1 1
Height
832 832 832 832 832 832 831 831 831 831 831 830 830 829 828 827 824 821 817 815 814 813 814 814 813 814 814 814 814 814 814 812 811 811 811 810 810 809 809 809 809 809 809 809 809 809 810 810 811 811 812 814 816 818 819 820 821 822 823 825 826 828 830 831 832 834 835 836 836 837 837 838 839 840
832 832 832 832 832 832 832 832 831 831 831 830 829 829 828 827 826 823 820 817 814 814 814 813 813 813 813 813 813 813 812 811 810 810 810 809 808 807 806 806 806 806 806 806 806 807 807 808 808 809 810 811 812 814 816 817 818 819 820 821 823 825 827 828 829 830 832 834 834 835 835 836 837 838
832 832 832 832 832 832 832 832 831 831 830 829 829 828 827 826 825 824 822 819 815 814 814 813 813 812 812 812 811 811 811 810 809 808 808 807 806 804 804 804 803 804 804 804 804 804 804 805 805 806 807 808 809 810 812 813 814 815 816 818 820 821 823 824 826 827 829 831 832 833 833 834 835 836
832 832 832 832 832 832 832 831 831 830 830 829 828 827 826 825 824 823 822 818 815 814 814 813 812 812 811 810 810 809 808 807 807 806 805 805 803 803 802 801 801 801 801 801 801 801 802 802 802 803 803 804 805 806 808 809 811 812 813 814 816 818 819 821 822 823 825 827 829 830 831 832 833 834
832 832 832 832 832 832 831 831 830 829 829 828 827 826 825 823 822 821 820 817 814 813 813 812 811 810 809 808 808 807 806 805 804 804 803 802 801 801 800 799 798 798 798 798 799 799 799 799 799 800 800 801 802 803 804 805 807 808 810 811 812 814 815 817 819 820 822 824 826 827 828 829 831 832
831 831 831 831 831 831 831 830 829 828 828 827 826 824 823 822 821 820 819 816 813 811 811 810 809 808 808 806 806 805 804 803 803 801 801 800 799 798 797 797 796 795 795 795 795 796 796 796 796 797 797 798 798 799 800 801 803 804 805 807 808 809 811 813 815 816 818 821 822 824 825 826 827 829
829 830 830 830 830 830 830 829 828 828 827 826 824 823 822 821 820 819 818 816 813 811 809 809 807 806 805 804 804 803 802 801 801 799 798 798 797 796 795 795 794 793 792 792 792 792 793 793 794 794 794 795 795 795 796 797 799 800 801 803 804 805 807 808 809 811 814 817 818 820 821 822 823 825
827 828 828 828 828 828 828 828 827 826 825 825 824 822 821 820 819 818 817 815 814 811 808 807 806 805 804 803 802 801 800 799 798 797 796 795 795 794 793 792 791 790 789 789 790 789 789 790 790 790 791 791 792 792 793 793 794 795 797 798 799 801 802 802 803 807 810 811 814 816 817 818 819 821
824 825 825 826 826 826 826 826 825 825 824 823 822 821 820 819 817 816 815 814 812 810 808 806 805 804 803 801 800 800 799 797 796 795 794 793 792 792 791 790 789 788 786 787 786 786 786 786 786 787 787 788 788 788 789 789 790 791 792 794 795 796 797 798 800 802 804 806 809 811 813 814 816 818
822 822 823 823 823 824 824 824 823 823 822 821 821 820 819 817 816 815 814 812 811 809 806 805 803 802 801 799 798 797 797 795 794 793 792 791 790 789 788 787 786 785 785 784 783 783 783 782 782 783 783 784 784 785 785 785 786 787 788 789 790 791 793 795 796 797 799 802 805 806 808 811 813 815
820 820 820 820 820 820 821 821 821 821 820 819 819 818 817 816 815 814 812 811 809 807 805 802 801 799 798 797 796 795 795 794 792 791 790 788 787 786 785 784 784 783 782 781 780 780 780 780 779 779 780 780 780 781 781 782 782 783 783 784 785 787 789 791 792 793 795 798 800 802 804 807 809 811
818 818 818 818 817 818 818 818 818 818 818 817 816 816 815 814 813 812 811 809 807 805 803 800 798 797 796 794 793 792 792 791 790 789 787 786 784 784 783 782 781 781 780 779 778 777 777 777 776 775 775 776 776 776 777 777 778 779 779 780 781 782 784 786 788 790 791 794 796 799 800 802 804 806
816 816 816 816 815 815 814 814 815 814 815 814 814 814 813 812 811 810 809 807 805 803 800 798 796 794 793 791 791 790 789 788 787 787 786 784 783 782 781 779 779 778 778 777 775 774 774 774 773 772 772 772 772 773 773 773 774 774 775 776 777 778 780 781 783 785 787 790 793 794 795 797 799 801
815 815 814 814 813 812 811 810 810 810 810 811 810 810 810 810 809 808 807 805 803 801 798 796 794 792 790 789 789 788 787 787 786 786 785 783 782 780 778 776 776 775 775 774 773 772 771 771 770 769 770 769 769 769 770 770 770 770 771 772 773 774 775 776 779 781 783 785 787 789 791 793 795 797
813 813 812 812 811 810 808 808 807 806 806 806 806 806 806 806 806 806 805 803 801 800 797 794 793 790 788 787 787 786 786 785 785 784 783 781 780 778 776 773 772 772 772 772 770 769 768 768 767 766 766 766 766 766 767 767 767 767 767 768 769 770 771 772 774 776 778 781 783 785 787 788 790 793
811 811 810 810 809 808 807 806 805 804 803 802 802 802 802 802 802 802 802 801 800 798 796 793 791 789 787 786 785 785 784 784 783 782 781 780 778 777 774 772 770 770 771 770 768 766 766 766 764 763 763 764 763 763 763 764 764 764 764 764 765 766 767 768 769 771 773 776 778 780 783 785 787 789
809 808 808 808 807 806 804 803 803 802 801 800 800 799 798 798 797 797 797 797 797 796 795 792 789 788 787 785 784 784 784 783 782 781 780 779 777 775 773 770 769 769 770 769 767 764 764 764 763 761 760 761 761 761 760 760 761 760 760 761 761 762 763 763 765 767 769 771 774 776 779 781 784 786
807 806 806 805 804 803 802 801 801 800 800 799 798 797 796 795 794 793 792 792 792 792 791 789 787 786 786 784 783 784 784 782 781 780 778 777 775 773 771 769 768 768 767 768 766 762 761 762 760 758 757 758 758 758 757 757 758 757 757 758 758 759 759 760 761 763 765 767 769 772 775 778 781 784
804 804 803 803 802 801 800 799 798 798 798 797 796 795 794 793 792 790 789 789 788 787 787 785 784 784 784 783 782 782 782 780 779 778 776 775 774 772 769 767 766 764 764 766 764 759 758 759 757 754 754 754 755 755 754 754 755 755 754 755 755 756 757 757 758 760 762 764 766 769 772 775 779 782
802 801 801 800 799 798 797 797 796 796 796 795 794 793 791 790 788 787 786 786 785 783 782 781 780 780 779 779 778 778 778 777 776 776 774 773 772 770 767 763 761 760 760 761 760 756 754 755 754 752 752 751 751 752 752 751 753 753 752 752 753 753 754 755 756 757 759 761 763 766 769 772 775 779
800 799 798 798 797 795 795 794 794 793 793 793 792 790 788 787 785 783 783 782 781 780 778 777 777 776 775 775 774 774 774 774 776 776 772 771 770 767 763 759 757 756 755 755 755 753 750 751 751 749 749 748 748 748 749 749 750 751 751 750 750 751 752 753 754 755 756 758 760 762 765 768 772 776
798 797 795 794 794 793 792 792 792 791 792 792 790 788 786 784 781 780 780 778 777 776 775 774 773 772 772 771 770 770 770 770 772 772 768 769 769 764 760 757 755 752 750 750 751 750 747 747 748 746 745 745 744 745 746 746 747 749 749 748 747 748 749 750 751 753 754 756 758 760 763 766 769 774
795 794 792 791 790 790 790 790 789 789 789 789 788 786 784 781 778 778 777 775 774 773 772 770 769 768 767 767 766 766 766 766 766 765 764 766 766 761 758 757 753 749 746 746 748 746 744 744 744 743 742 741 739 741 744 744 745 747 747 746 745 745 746 748 749 751 753 755 757 759 762 765 768 771
792 791 790 789 788 787 787 786 786 786 786 786 785 784 781 778 776 775 775 773 772 770 769 768 766 765 764 763 762 762 761 761 761 760 760 761 760 757 755 754 751 745 742 743 745 743 741 741 740 739 739 737 734 737 741 742 743 744 744 743 743 743 744 745 747 749 752 754 756 758 761 764 767 769
790 788 787 787 786 785 784 784 784 783 783 782 782 780 777 775 774 773 772 770 769 768 766 765 763 762 761 760 758 757 757 756 755 755 755 755 755 753 752 750 747 743 741 742 743 740 738 737 736 735 735 733 732 734 739 741 741 741 741 741 741 741 742 743 745 748 751 754 757 759 761 763 766 768
788 786 785 784 784 783 782 781 781 780 779 778 777 775 773 771 771 770 769 767 766 765 763 761 759 758 757 755 754 753 752 751 751 750 750 750 750 749 748 747 745 741 740 741 742 740 737 735 734 733 731 729 729 731 735 738 739 740 740 740 740 740 741 742 743 746 750 753 756 759 762 764 767 769
786 784 783 782 781 779 779 778 777 775 774 773 771 769 768 767 767 766 765 764 762 760 759 757 755 753 752 751 749 748 748 747 747 746 746 746 745 745 744 743 742 740 739 740 740 739 737 735 734 733 731 729 727 727 730 734 737 738 740 740 740 740 741 742 743 744 748 752 756 760 763 766 768 771
784 782 781 779 777 776 775 774 772 771 769 767 766 764 763 763 762 762 760 759 757 755 754 752 750 748 747 746 745 744 744 743 743 742 742 741 741 740 740 739 739 738 738 738 738 736 735 734 733 733 732 730 727 726 728 731 734 736 738 739 740 740 741 742 744 744 746 750 755 759 763 766 769 772
782 780 777 776 774 773 771 770 768 766 765 763 762 760 759 758 758 757 755 753 752 750 748 747 745 743 742 741 740 740 740 740 739 739 738 738 737 737 736 735 735 734 734 735 735 734 733 732 732 732 732 729 727 725 726 728 730 733 735 736 738 740 741 743 744 746 747 750 754 757 760 764 768 771
778 776 774 773 771 770 768 767 765 763 761 760 758 757 755 754 753 752 750 749 747 745 743 742 740 739 738 737 737 736 736 735 735 734 734 734 733 733 733 732 730 730 730 731 731 731 731 730 730 730 730 728 727 726 725 726 727 730 732 734 736 738 741 742 744 746 749 751 755 758 760 764 768 771
776 774 772 771 769 767 766 764 762 760 758 756 755 753 752 751 749 748 747 745 743 741 739 738 736 735 735 734 733 733 732 731 730 730 730 730 729 730 730 728 727 726 726 727 727 728 728 728 728 728 727 726 726 726 725 725 725 727 729 731 733 735 738 741 744 746 749 752 755 759 761 764 768 770
775 773 771 769 767 765 763 762 760 758 756 754 752 751 749 748 746 745 743 741 739 738 736 734 733 732 731 730 729 728 727 726 726 726 726 726 726 726 726 725 724 723 723 722 723 724 724 725 725 725 725 725 724 725 725 724 724 725 727 729 731 733 736 738 742 746 749 752 755 759 763 765 768 770
774 772 769 767 766 764 762 760 758 756 754 752 750 749 747 745 743 741 740 738 736 734 733 731 729 728 727 726 725 724 723 722 722 722 722 722 722 722 722 722 721 720 720 719 719 719 720 721 721 721 722 722 723 723 724 723 723 724 725 726 729 732 735 738 741 744 747 750 754 758 763 766 768 771
773 770 768 766 764 763 761 759 756 754 752 750 748 746 744 743 740 738 737 734 732 731 729 728 726 725 723 722 720 719 718 717 717 718 718 718 718 718 718 717 717 717 717 716 715 716 716 717 717 718 719 720 720 721 721 721 721 722 724 725 727 731 734 738 740 743 746 749 752 756 761 765 769 771
771 769 766 765 763 761 760 757 755 753 751 748 746 744 742 740 737 735 733 731 729 728 726 724 722 721 719 717 716 715 714 713 712 713 713 714 714 713 713 713 713 713 714 713 713 713 713 713 714 715 716 717 717 718 718 718 719 720 722 725 727 730 733 737 740 743 747 749 751 754 759 764 768 771
770 767 765 763 762 760 758 756 754 752 749 747 744 742 739 736 734 732 730 728 726 724 722 720 718 716 714 713 711 710 709 708 707 707 708 708 708 709 709 709 709 710 711 711 710 710 711 711 711 711 712 713 714 714 715 716 717 718 720 723 726 729 732 736 740 743 746 749 751 754 757 762 766 770
768 766 764 763 761 759 756 754 752 750 747 745 742 740 737 734 731 729 726 724 722 720 718 716 713 711 710 708 706 705 704 703 702 702 702 702 703 704 704 705 705 706 707 707 708 708 708 708 708 709 709 710 710 711 712 714 716 717 718 720 724 728 731 734 739 743 746 749 752 754 757 761 766 769
767 765 763 761 759 757 755 753 751 748 745 743 740 737 734 731 728 726 723 721 718 716 714 711 709 707 705 703 701 700 698 698 697 697 697 697 698 698 699 700 701 702 702 703 704 705 705 705 706 706 707 707 707 707 710 713 715 717 718 719 721 725 729 733 737 741 745 749 753 756 758 762 766 769
767 764 762 760 758 756 753 751 749 746 744 741 738 735 732 729 725 722 720 717 714 712 709 707 704 702 700 698 696 695 693 693 692 692 692 692 693 693 694 695 697 698 699 699 700 701 701 702 703 704 705 706 705 705 707 711 714 716 718 719 720 723 727 731 735 739 744 747 751 756 760 763 767 770
766 764 761 759 757 754 752 750 747 745 742 739 735 732 729 726 723 719 716 713 711 708 705 702 699 696 694 692 691 689 688 687 687 687 688 688 689 690 691 692 693 694 695 695 695 696 697 697 699 701 703 705 705 705 705 709 713 716 718 721 722 723 725 729 732 736 741 745 749 754 758 763 767 772
765 762 760 758 756 754 751 749 746 743 740 737 733 730 727 723 720 717 714 711 707 704 701 698 695 692 689 687 686 685 683 683 683 684 684 685 686 687 688 689 690 691 691 691 692 692 693 695 697 700 702 703 705 705 705 709 713 716 719 722 725 726 728 729 730 733 737 743 748 754 759 764 768 773
764 762 760 758 756 753 750 748 745 742 739 735 732 728 725 721 718 714 711 708 704 701 698 694 691 688 685 683 681 680 680 679 680 681 681 682 683 684 685 686 686 687 688 688 689 690 691 693 695 697 700 701 703 703 705 708 713 716 720 723 726 729 731 733 734 736 738 742 745 750 755 761 767 772
764 762 759 757 755 753 750 747 744 741 737 734 730 727 723 719 715 712 709 705 702 698 695 691 688 685 682 679 678 677 677 677 677 678 679 680 681 682 682 683 683 685 686 686 687 688 690 692 693 695 697 699 700 701 705 709 713 716 720 724 727 730 733 736 739 742 745 747 750 752 754 758 763 767
764 762 759 757 755 752 749 746 743 740 736 733 729 725 721 718 714 710 706 703 699 696 692 689 685 682 679 677 676 675 675 675 675 676 677 677 678 679 680 680 682 683 684 685 686 687 688 690 691 693 695 697 698 700 704 709 713 717 720 724 727 731 734 737 740 745 749 753 756 758 760 762 764 767
764 762 759 757 754 751 748 745 742 738 735 731 727 724 720 716 712 708 704 701 697 694 690 687 684 680 678 676 675 674 673 673 673 674 675 676 676 677 678 679 680 682 682 683 685 687 688 690 691 693 695 696 698 701 704 709 713 717 722 725 729 732 736 739 742 745 751 756 760 762 764 766 769 771
Wind_Speed
4 4 3 3 3 4 4 4 4 5 5 6 6 7 7 8 6 5 5 5 5 4 5 5 5 5 5 5 6 8 9 11 11 10 10 11 12 13 14 15 15 15 18 20 20 19 19 21 25 28 30 32 33 33 32 32 32 32 32 30 28 26 27 28 28 27 26 25 24 25 25 24 22 21
3 3 3 2 2 3 4 4 4 5 6 6 7 7 8 8 8 8 7 6 7 7 7 7 7 6 6 6 8 9 9 12 13 11 11 11 12 14 16 18 18 16 17 19 21 21 20 19 20 23 27 30 32 34 34 33 33 33 34 34 31 29 28 29 30 30 29 27 26 26 26 25 23 22
2 2 2 1 1 2 3 3 4 5 6 7 8 8 8 9 9 10 9 7 8 9 9 9 9 9 10 11 11 12 12 13 13 12 12 12 13 15 17 19 19 17 17 17 18 20 21 20 19 20 23 27 30 33 35 36 35 35 35 36 35 32 30 31 31 31 31 30 29 28 27 25 24 24
2 2 1 0 0 2 3 3 5 6 6 7 9 9 9 10 10 11 12 10 9 11 12 12 12 12 13 13 13 13 13 13 13 12 12 13 14 15 15 16 16 17 18 17 16 17 18 19 20 21 22 24 27 30 32 35 36 37 37 37 37 35 34 33 33 33 33 32 31 31 29 26 24 24
2 1 1 1 1 2 3 4 5 6 6 8 9 9 10 10 10 11 13 13 12 13 13 12 13 12 12 13 13 13 13 12 13 13 13 14 14 15 15 15 15 16 17 17 17 17 17 17 18 19 20 21 24 26 28 31 34 37 38 39 39 38 37 36 35 34 34 34 33 33 33 30 27 25
2 2 2 2 2 3 4 5 7 7 8 9 9 9 10 11 11 11 13 14 14 14 14 13 14 13 13 14 13 12 13 13 13 15 15 15 15 15 15 14 14 15 16 16 18 18 18 18 18 18 18 19 20 22 24 27 30 34 38 40 40 40 40 39 38 37 36 36 36 35 35 33 31 29
2 2 3 3 4 4 6 7 8 9 8 9 9 10 10 11 12 12 13 15 15 16 15 14 14 14 13 13 13 13 14 14 14 16 17 16 15 15 15 15 15 15 15 14 16 18 19 19 20 21 21 21 22 22 23 24 27 31 36 40 41 42 42 42 42 40 38 37 38 38 37 36 35 33
3 3 4 5 5 6 8 9 10 9 9 9 10 11 11 11 12 13 13 15 16 16 16 15 15 14 14 14 14 14 15 15 15 16 16 16 16 16 16 16 16 15 15 16 17 20 20 19 20 21 22 22 23 23 24 25 26 28 32 37 41 43 44 46 46 44 41 40 40 41 40 39 38 36
4 4 4 5 6 7 9 10 11 11 11 11 11 11 11 12 12 12 13 15 16 17 17 17 15 15 15 16 16 15 15 16 16 16 16 16 16 16 16 17 17 17 19 19 18 19 19 19 19 20 22 22 23 23 24 25 26 27 29 33 38 42 45 48 48 47 45 43 42 43 43 41 40 38
4 4 5 6 7 8 10 11 11 11 12 12 12 12 12 12 12 13 14 15 16 17 18 18 17 16 16 16 16 15 15 16 16 15 16 16 16 16 17 17 17 18 18 17 16 15 15 15 17 18 20 21 23 23 24 24 25 27 29 30 34 39 44 47 49 49 49 45 43 44 45 43 41 40
5 6 7 7 8 9 10 11 11 11 11 12 12 12 12 12 13 14 14 15 16 17 18 17 17 16 15 15 16 15 14 15 16 16 16 16 15 15 16 16 16 16 16 18 18 17 15 16 18 19 20 20 22 23 24 24 24 26 28 30 32 35 40 45 49 50 50 48 46 46 45 44 43 42
6 7 8 9 9 9 10 12 12 13 13 13 13 13 13 13 14 14 14 15 15 16 17 17 16 16 15 15 15 14 13 14 15 14 14 15 14 13 14 14 15 15 15 16 18 18 18 18 17 17 18 19 21 22 23 25 26 26 27 29 31 33 36 41 46 49 50 50 48 48 46 45 44 43
7 8 9 10 10 12 14 16 17 17 17 18 17 16 14 14 14 15 15 15 16 16 16 17 16 16 15 14 14 13 13 13 13 12 12 14 15 15 16 17 16 16 16 17 17 18 18 18 17 15 15 17 18 19 20 23 26 27 27 28 29 31 33 37 42 46 49 49 49 50 49 47 45 44
7 9 10 11 12 15 18 19 18 18 18 19 20 19 18 17 16 16 16 16 17 17 17 17 17 16 16 14 14 14 13 13 13 13 14 15 15 15 16 16 16 16 17 17 18 18 18 19 19 18 17 17 17 17 18 22 24 26 27 28 29 30 31 34 37 42 47 49 50 52 51 49 47 45
8 9 10 11 12 14 15 16 16 17 19 20 21 21 21 21 20 19 19 18 17 17 18 18 18 17 17 16 15 15 15 14 14 13 13 14 14 14 14 13 12 12 13 15 17 17 16 17 19 20 19 18 17 17 18 19 21 23 25 26 27 28 30 31 34 38 44 47 50 52 52 52 50 48
8 9 10 11 12 12 13 15 16 17 19 20 21 21 21 22 22 23 23 22 21 20 19 20 19 19 18 17 16 15 14 14 14 14 14 14 14 15 15 14 13 12 11 14 17 18 16 16 18 20 20 19 18 18 19 20 22 22 21 21 23 25 27 29 31 34 39 44 48 51 53 53 52 50
8 9 11 12 12 12 13 15 15 15 16 17 18 19 20 22 23 24 25 25 25 24 23 23 22 21 19 18 17 15 14 15 15 16 16 15 15 16 16 16 16 14 13 14 18 20 18 17 18 20 20 20 19 18 19 21 22 22 19 18 19 20 22 25 28 31 36 40 44 49 52 53 52 50
9 10 11 12 13 12 12 13 13 13 13 14 15 16 18 20 21 22 23 24 25 26 27 27 27 25 23 22 21 18 17 18 19 20 19 18 17 18 19 20 20 18 17 16 17 19 19 18 19 20 20 19 19 19 19 19 20 19 17 16 16 16 17 20 23 28 32 36 40 45 49 50 50 48
9 10 11 12 13 13 12 12 13 13 13 14 15 16 17 19 19 20 21 23 24 26 27 28 27 26 25 24 24 22 20 20 20 21 22 22 22 22 23 23 23 22 20 19 18 19 19 18 18 19 18 18 19 19 18 19 20 18 14 14 15 15 14 15 19 23 27 31 36 41 45 45 45 45
9 10 10 11 12 12 12 13 14 16 15 15 17 18 19 20 20 21 21 22 25 27 28 28 28 27 26 25 26 24 22 22 21 20 21 22 22 23 23 22 22 21 20 21 22 22 20 18 19 19 17 18 20 18 14 15 18 17 12 12 14 15 14 15 16 19 23 27 33 38 41 42 41 41
10 10 11 12 13 13 13 13 14 16 16 17 19 21 22 23 24 24 23 23 25 27 29 30 32 33 34 33 34 33 32 31 28 24 22 21 21 22 20 18 19 20 18 20 22 23 22 19 19 19 18 19 20 16 12 12 17 17 13 12 13 15 15 15 15 17 20 25 30 35 38 40 40 39
11 11 14 15 14 14 14 15 17 18 18 19 21 23 24 24 25 25 24 24 24 24 26 28 29 31 32 33 34 34 35 36 34 31 28 25 24 24 21 18 19 20 19 19 19 20 22 20 18 19 18 17 17 15 13 15 17 16 13 13 14 14 13 14 14 15 18 23 28 32 36 38 39 38
12 13 15 15 15 16 16 17 18 19 20 21 22 23 24 25 26 24 23 23 24 23 24 25 25 26 26 26 27 27 28 29 30 31 31 30 30 30 27 23 19 16 16 18 18 20 20 18 18 19 15 12 13 15 15 14 13 11 10 10 12 13 13 12 12 12 16 21 26 30 34 36 37 38
15 15 15 14 14 15 16 17 19 20 22 23 23 24 25 26 25 23 23 24 24 24 25 25 25 25 25 24 25 25 25 25 26 28 30 31 34 34 30 26 22 18 16 15 16 20 21 19 19 20 18 14 13 13 13 9 8 8 8 8 10 13 13 11 10 11 14 20 25 30 33 36 37 38
16 16 15 14 14 17 19 21 23 24 26 26 25 26 27 28 27 26 26 26 26 26 26 26 26 26 25 25 25 26 26 26 26 27 28 29 32 34 32 29 27 26 23 20 18 20 22 21 21 21 21 20 17 12 11 8 6 7 8 7 9 11 13 12 12 13 16 20 25 29 32 35 36 37
16 16 16 15 17 20 21 23 25 27 29 29 29 29 30 31 31 31 30 28 27 26 26 26 26 25 24 24 25 25 25 25 25 26 27 27 28 31 32 31 29 27 25 23 22 22 21 21 21 20 20 20 20 16 12 8 5 5 6 6 7 9 13 15 16 18 20 24 27 29 31 33 33 33
16 16 16 17 19 22 23 26 28 30 30 30 29 29 30 31 31 30 29 28 27 26 26 26 26 25 24 24 25 25 25 25 24 25 25 26 26 28 30 31 32 31 28 24 23 24 24 23 22 21 20 19 18 16 13 9 7 7 7 6 6 9 13 17 20 22 25 26 28 29 30 29 27 27
16 17 18 21 24 26 28 29 30 30 29 28 27 27 28 28 28 27 26 26 26 26 26 26 26 26 25 25 26 25 24 24 24 24 25 25 25 26 27 28 30 32 31 28 26 26 26 25 24 21 21 21 18 15 14 12 10 10 10 9 7 9 12 16 19 23 26 28 30 30 30 27 25 25
17 20 23 25 26 27 28 28 27 26 25 25 24 25 25 25 24 24 24 24 24 25 25 25 26 26 26 26 26 25 25 25 25 25 25 25 25 25 26 27 28 28 29 29 29 28 27 26 24 21 21 22 20 17 16 13 12 13 13 12 11 10 11 14 16 19 24 28 31 32 31 29 27 26
20 22 23 24 25 25 24 24 24 23 23 23 23 23 23 23 23 22 22 23 23 24 24 24 25 25 25 25 25 25 25 26 25 25 25 25 24 23 23 24 25 25 26 27 28 28 27 27 26 23 22 22 20 18 16 12 13 16 14 14 15 12 11 13 15 16 20 25 29 30 30 29 28 26
19 21 22 22 22 22 22 21 21 22 22 22 22 21 20 20 20 20 22 23 24 24 25 24 24 24 24 24 24 24 25 26 25 25 25 25 24 22 22 22 22 22 24 26 27 28 28 27 26 25 24 23 21 18 18 15 12 17 16 15 17 16 15 17 16 16 18 22 26 26 26 27 27 25
19 19 19 19 19 18 19 19 19 19 19 18 18 18 18 19 20 21 22 24 25 26 26 26 26 25 24 24 24 23 24 25 25 24 25 25 24 22 20 19 19 19 21 22 25 27 28 27 27 27 25 23 22 19 18 16 12 18 18 16 15 14 17 19 18 18 20 22 23 21 21 23 25 24
17 16 16 16 16 16 17 17 18 18 18 18 18 18 18 19 20 20 21 22 23 24 25 26 27 26 25 25 24 24 25 25 24 24 25 25 23 21 20 19 18 19 19 19 21 24 25 26 28 29 27 24 22 21 18 12 10 16 16 16 16 15 16 18 19 22 24 25 24 22 20 21 22 22
14 14 15 15 15 16 16 17 17 18 18 18 19 19 19 19 20 20 21 21 22 23 24 25 25 24 24 23 23 24 25 25 25 25 25 24 23 21 20 19 19 20 20 19 20 22 21 22 25 26 25 23 21 22 21 14 12 14 13 14 17 17 17 17 19 22 24 25 26 24 21 19 19 19
13 14 15 15 15 16 16 17 17 18 19 19 20 20 20 20 20 21 21 22 22 23 24 24 24 23 23 23 23 24 25 25 25 25 25 26 25 24 23 21 20 20 20 19 19 20 20 20 21 21 21 20 18 18 20 16 14 16 16 15 15 17 18 18 20 23 25 25 26 25 22 21 20 20
13 14 15 15 16 16 16 17 18 18 19 20 20 20 21 21 21 21 22 23 23 23 24 24 24 24 24 24 24 25 25 26 25 25 26 27 27 27 26 25 24 23 21 20 19 18 18 19 20 18 14 12 11 11 13 14 16 18 19 18 16 16 18 19 21 24 26 25 24 24 23 22 23 23
14 15 15 15 16 16 17 18 19 19 19 20 21 21 21 22 23 23 24 24 25 25 25 25 25 25 25 25 24 23 23 24 24 24 24 25 26 26 26 25 24 23 22 22 22 21 19 19 20 18 12 7 8 8 6 9 15 20 22 21 19 19 22 24 24 25 25 24 23 24 24 23 20 19
15 15 15 15 16 17 18 19 19 19 20 21 21 22 22 23 23 24 24 25 26 25 24 23 24 24 24 24 23 22 21 22 22 22 22 23 24 24 24 22 20 20 21 23 24 24 22 20 20 18 13 8 8 8 6 8 11 16 21 24 24 26 27 27 26 26 26 25 24 25 25 21 17 17
15 15 16 16 17 18 19 19 20 20 21 21 22 22 23 23 24 24 25 25 25 25 24 24 24 25 25 25 24 23 22 22 21 20 21 22 22 23 22 20 18 17 18 20 21 23 23 22 20 19 16 12 10 8 10 12 11 12 17 23 26 29 30 28 27 27 26 27 28 27 25 23 21 22
15 16 16 17 18 19 19 20 21 20 21 21 22 22 23 24 24 25 24 24 26 27 27 27 27 27 27 26 24 23 23 23 22 20 20 20 20 20 20 19 17 17 17 18 19 20 22 22 22 21 20 16 12 10 17 18 13 12 16 19 24 29 31 31 31 32 31 32 34 33 29 26 25 24
16 17 17 17 18 19 20 21 21 21 21 22 22 22 23 24 24 26 26 28 29 29 28 26 25 25 25 24 23 22 22 21 21 20 19 19 18 18 19 18 17 16 16 16 16 17 19 21 22 22 20 17 14 15 17 15 11 13 16 17 20 25 28 31 36 39 38 39 38 32 26 24 23 21
17 17 17 18 18 19 20 21 22 22 22 23 23 23 23 24 25 26 26 27 27 25 24 23 22 22 23 22 21 19 19 18 17 18 18 19 17 15 16 18 17 15 14 14 13 15 17 18 19 21 20 21 22 17 11 10 13 16 19 20 20 20 22 27 33 37 39 42 41 34 28 25 20 15
17 18 18 18 19 19 20 22 22 23 23 23 23 24 24 24 25 25 24 24 23 23 23 23 22 22 22 18 14 13 15 16 16 15 16 18 17 14 14 16 16 16 14 12 12 14 15 16 18 21 24 25 24 18 14 16 19 20 22 25 27 26 27 29 31 32 33 34 36 35 31 26 19 15
18 18 18 18 19 20 21 22 22 22 23 23 24 24 24 24 24 24 24 23 23 23 24 24 23 23 21 15 10 11 12 13 14 14 14 16 17 15 13 13 14 14 13 11 10 11 14 17 21 24 24 23 22 22 21 21 22 22 25 29 33 35 35 33 32 32 30 28 29 29 27 23 20 21
18 18 18 19 20 20 21 22 22 22 23 23 24 24 24 24 25 25 24 22 23 23 24 23 23 22 19 12 9 11 11 11 12 13 12 13 14 14 12 11 11 11 11 11 10 10 13 17 19 20 19 21 24 26 26 25 25 26 28 30 33 34 33 33 34 34 31 26 24 24 22 20 22 25
Wind_Direction
82 68 51 36 28 12 355 341 335 326 314 305 297 291 290 292 294 294 291 288 283 272 271 277 268 260 263 264 273 278 271 274 286 294 289 284 279 278 275 268 262 258 253 248 246 243 239 236 232 230 230 228 227 229 234 236 234 232 230 230 231 231 226 220 218 218 216 214 216 218 217 217 213 209
98 84 66 53 40 18 353 335 328 319 308 300 291 286 284 281 282 287 292 289 286 283 278 276 274 274 280 284 285 281 275 280 288 288 284 283 276 271 271 269 267 264 260 252 246 244 244 245 243 237 234 232 229 228 230 234 235 234 232 230 230 231 230 226 223 223 221 217 217 219 219 219 215 210
121 110 86 64 51 8 340 325 321 313 305 300 295 288 281 274 272 277 281 281 280 281 282 281 280 282 285 287 285 284 282 280 280 281 279 278 275 273 272 272 273 271 265 259 251 247 247 248 246 242 238 236 233 231 230 231 233 235 234 232 232 232 231 229 226 225 224 219 219 221 222 222 219 212
150 142 124 159 55 346 326 316 313 305 298 296 293 288 282 275 270 269 271 273 276 279 281 282 281 281 282 283 281 282 284 281 280 282 278 276 279 280 275 274 275 273 268 263 257 252 251 251 250 248 245 241 237 235 232 231 232 234 235 233 233 233 233 231 229 227 225 221 220 223 225 226 223 213
170 187 260 262 269 308 314 311 307 302 297 293 287 281 277 274 271 269 270 274 279 280 279 278 279 280 281 280 279 281 284 283 283 284 281 279 278 275 272 271 270 270 271 269 264 259 254 253 253 251 249 246 242 240 237 235 234 233 234 234 234 234 234 232 230 228 225 222 220 223 226 228 225 216
188 221 269 291 295 296 303 307 305 304 299 293 287 281 278 276 274 272 273 277 281 283 282 281 279 279 278 276 276 278 280 282 284 284 283 281 277 270 268 268 269 270 270 270 270 267 260 254 251 249 249 248 248 246 243 240 238 235 234 234 234 235 234 233 232 229 226 223 221 222 226 229 228 222
210 244 276 296 302 301 305 306 305 304 298 293 290 285 279 275 274 273 272 275 279 283 284 283 282 281 277 273 274 276 276 277 279 281 282 281 277 271 266 265 267 266 261 259 265 270 267 262 256 252 250 248 247 247 246 244 242 239 236 235 235 234 234 234 233 229 227 225 221 221 223 227 230 228
226 256 281 294 302 304 305 306 305 303 297 294 290 285 280 275 272 270 269 270 274 279 282 281 281 281 280 276 276 277 276 274 273 275 278 279 277 273 269 266 263 261 260 261 266 270 270 266 261 256 253 250 247 245 244 244 243 242 239 236 235 235 235 235 232 228 228 226 222 220 222 225 229 230
224 245 271 287 297 302 304 304 303 301 298 294 288 284 281 279 276 273 270 269 271 274 277 279 279 278 277 277 275 274 274 274 273 271 271 274 276 275 273 268 263 263 267 268 269 272 273 270 264 257 253 252 249 246 244 243 241 242 241 239 237 236 237 236 232 228 228 226 222 220 221 224 228 230
225 244 266 281 289 295 299 299 298 296 294 290 286 284 282 280 279 276 273 271 272 272 274 277 278 276 274 274 274 271 270 272 274 274 274 272 271 270 271 269 265 262 260 258 261 270 276 275 268 259 253 251 250 249 247 245 243 241 240 240 238 237 237 237 234 231 227 225 223 222 221 224 227 228
245 260 272 278 283 289 292 294 294 294 292 287 284 281 280 279 278 275 273 272 271 271 273 274 274 274 273 272 272 272 270 269 270 272 274 274 271 267 265 265 265 262 258 255 256 260 262 265 269 267 260 253 250 249 248 247 246 243 241 240 238 238 237 237 237 234 228 225 224 222 221 224 226 227
261 271 277 279 281 281 283 286 287 287 286 285 284 282 280 278 275 274 274 273 270 270 271 272 272 273 273 271 271 271 269 267 267 268 270 275 277 274 269 267 265 264 263 261 259 256 252 257 266 270 265 259 253 249 247 245 244 245 243 241 239 238 237 237 238 236 230 226 225 222 221 224 226 226
273 278 281 280 276 273 279 285 286 283 279 276 275 276 277 278 276 274 272 271 271 270 270 271 272 272 270 269 271 271 267 267 271 275 275 276 279 279 275 270 264 262 263 262 260 254 249 251 254 254 258 262 258 252 250 247 242 242 243 244 243 241 238 237 238 237 233 228 226 225 223 224 226 225
281 283 283 283 279 279 287 293 294 289 282 275 271 269 269 270 272 274 273 270 270 270 271 271 272 271 269 269 270 271 271 273 275 276 274 274 276 276 274 270 265 259 257 259 260 256 250 249 248 244 247 253 252 251 254 252 247 244 242 243 244 244 242 239 237 237 235 231 228 226 225 224 226 225
283 286 285 285 282 282 287 292 295 293 287 282 277 273 269 266 264 265 267 269 269 269 270 270 270 269 269 268 268 270 272 273 271 270 270 271 273 272 271 272 269 259 253 256 260 259 254 250 248 246 243 243 242 243 247 249 251 250 246 243 242 242 243 242 238 235 236 233 229 227 226 226 226 224
284 287 288 285 281 278 278 280 284 285 283 282 280 278 275 270 264 259 258 260 263 265 268 270 268 267 270 271 268 268 273 275 275 275 272 270 270 268 266 266 266 264 263 263 263 263 259 255 254 251 245 241 241 243 242 242 247 251 249 245 242 241 241 241 238 234 234 234 231 228 227 226 225 223
285 287 287 284 280 278 276 277 277 276 278 281 282 281 277 271 267 263 259 257 257 259 263 267 266 265 268 271 269 268 273 276 279 279 275 272 269 266 264 263 263 264 267 268 266 264 260 258 257 255 248 242 242 244 244 244 247 248 246 243 243 243 241 239 237 233 233 234 233 229 226 224 223 221
283 283 283 282 281 279 277 276 275 277 281 283 282 281 276 270 269 268 264 260 257 255 254 257 261 263 264 267 269 271 273 273 273 274 274 274 273 271 269 269 268 265 263 264 266 264 259 255 255 254 249 243 241 241 243 246 251 250 243 240 241 242 242 239 235 232 233 235 234 230 226 223 222 219
279 280 279 280 281 280 278 275 273 277 283 286 285 282 277 274 273 269 265 260 256 252 249 250 256 261 261 261 264 267 270 273 273 274 273 272 272 274 274 272 267 262 256 251 253 259 257 252 252 254 250 245 244 241 238 242 250 253 247 240 238 238 238 237 234 233 233 235 234 230 225 221 218 215
279 279 277 281 282 280 279 278 277 279 283 286 287 284 281 279 276 272 268 264 259 256 255 255 258 260 259 256 255 257 262 268 276 283 280 271 267 268 269 266 261 257 250 241 240 249 253 247 249 253 250 246 245 237 230 243 255 257 251 240 236 236 236 235 234 235 234 234 232 227 222 217 213 209
283 279 277 282 284 282 281 280 281 282 283 286 286 285 283 281 278 275 273 270 267 264 263 262 263 264 263 260 259 258 259 261 268 277 275 265 261 262 262 261 259 256 251 239 233 241 248 244 243 248 247 247 244 232 225 246 258 260 259 248 237 233 236 238 237 237 237 234 230 225 219 214 211 206
288 285 285 284 280 278 278 277 277 279 282 285 285 284 283 280 278 276 275 274 273 270 269 269 268 267 266 265 264 262 260 259 259 261 259 254 255 258 258 260 262 260 255 245 233 239 247 242 239 246 247 243 237 225 224 237 246 256 263 255 240 233 234 238 240 241 239 233 227 221 216 210 205 200
294 291 290 286 278 277 278 277 277 278 280 281 282 283 282 279 277 276 276 275 274 273 272 271 270 268 267 264 262 261 261 259 256 254 253 248 248 252 255 257 259 260 256 245 233 235 244 241 237 240 244 242 231 220 220 230 238 245 250 243 234 231 230 230 232 237 236 228 220 213 207 202 196 189
297 293 291 286 282 285 287 286 285 284 282 280 280 281 278 275 275 278 277 276 277 277 274 271 270 269 267 264 261 260 259 257 253 250 248 244 242 246 251 251 250 253 254 248 236 237 242 242 239 236 235 243 241 216 204 213 224 221 220 221 220 220 218 212 210 218 222 218 212 206 201 197 193 188
296 295 293 289 288 290 290 288 286 283 281 279 278 277 274 272 273 277 277 277 277 277 274 271 270 268 266 264 262 259 258 255 251 249 246 243 240 242 245 247 249 251 251 250 252 254 249 243 243 240 236 240 242 215 186 187 210 209 207 212 211 206 201 192 187 193 199 201 202 200 195 193 192 190
294 293 293 295 294 292 288 285 282 281 282 282 280 276 274 273 273 274 274 274 274 272 269 267 266 265 264 262 260 258 257 255 253 251 249 246 244 243 244 246 248 251 252 249 252 258 255 247 245 245 240 239 238 222 197 182 185 188 190 196 193 190 191 185 177 178 182 184 187 189 187 185 186 188
295 295 296 296 293 289 287 287 287 288 289 286 282 277 275 275 275 274 272 270 268 265 263 262 261 260 259 259 258 258 257 255 254 253 251 250 248 247 247 247 248 251 255 254 251 250 250 247 246 248 249 247 241 230 217 204 191 181 178 177 168 172 183 182 175 173 176 178 178 177 176 177 180 183
295 296 296 295 292 292 293 295 296 296 294 290 285 283 281 279 277 274 269 265 262 260 258 257 256 255 253 254 255 255 255 255 255 253 253 251 249 249 250 249 250 251 252 252 252 250 248 247 246 249 254 255 250 238 224 209 186 173 171 164 156 164 174 174 170 169 172 175 175 172 171 171 174 176
299 299 300 300 300 300 301 301 300 298 295 293 291 289 287 283 277 271 266 262 259 257 256 254 254 254 253 252 253 254 255 255 254 251 251 250 249 249 250 251 252 253 251 250 249 248 248 247 244 244 247 250 252 251 236 208 175 169 174 163 154 160 166 166 166 165 167 171 173 172 172 172 172 172
311 310 308 306 304 302 301 300 298 295 293 292 290 288 284 279 272 267 263 260 258 256 256 255 255 256 256 255 255 255 253 252 249 247 247 246 246 247 248 250 251 250 249 247 244 243 245 246 244 241 241 245 251 259 258 232 180 169 175 164 153 155 160 163 165 163 163 167 169 169 170 172 173 174
313 310 306 303 301 301 300 299 297 294 292 291 290 288 285 279 274 270 266 263 261 259 259 258 258 259 259 259 257 254 251 249 246 244 242 243 243 242 243 247 250 247 245 242 238 238 241 242 242 239 239 245 248 251 264 260 199 169 169 169 163 161 164 164 163 163 164 164 164 165 167 170 172 172
308 305 303 303 303 305 304 303 302 299 295 294 292 291 289 286 282 279 275 270 266 263 261 260 260 260 259 257 255 252 250 248 244 242 240 240 241 240 240 243 246 247 245 239 235 236 237 238 240 237 235 242 244 243 259 263 207 169 166 169 165 162 162 162 160 160 160 157 156 159 164 167 169 168
305 304 305 307 308 309 307 307 306 305 302 300 297 294 292 290 286 283 280 276 271 267 265 263 262 261 259 257 254 250 249 247 244 241 238 237 237 236 236 239 241 243 244 240 235 235 234 234 237 238 236 239 240 240 249 245 186 166 166 163 158 155 158 160 160 158 158 155 152 154 157 159 163 165
305 304 308 310 310 310 310 310 309 309 308 304 301 298 295 293 289 286 282 278 275 273 271 268 266 263 261 259 256 252 250 248 245 242 238 236 234 231 232 235 237 238 242 242 238 235 234 233 233 232 232 233 235 240 243 226 176 165 169 163 157 155 157 161 161 159 160 158 151 147 148 153 159 164
305 311 312 312 313 312 312 312 312 312 310 306 303 301 298 295 293 289 285 282 279 277 275 271 268 264 262 260 258 255 252 250 247 243 239 235 232 231 232 234 235 235 238 241 240 236 232 230 226 223 223 224 227 237 243 229 189 165 158 157 158 157 156 160 162 160 160 158 150 145 146 150 155 162
309 319 316 312 314 315 314 315 314 313 311 307 304 302 299 297 295 291 288 288 286 282 279 275 270 266 263 260 258 256 253 250 246 241 236 232 230 231 234 236 237 237 236 238 241 237 231 227 223 217 216 218 217 222 228 220 201 180 163 154 155 157 156 156 158 159 158 154 149 147 147 149 154 159
322 324 318 313 314 314 314 316 316 313 310 308 304 301 299 296 294 292 291 292 290 285 280 276 272 269 265 261 259 256 252 248 243 238 234 230 227 228 231 234 236 235 234 236 238 236 233 231 223 216 215 218 218 214 198 183 189 190 180 165 156 157 158 154 153 157 158 154 150 147 144 142 147 155
329 326 321 317 316 315 316 317 316 313 310 308 305 303 300 297 295 294 294 292 290 286 282 277 274 272 268 263 259 256 253 249 243 237 231 227 223 224 226 229 230 230 229 231 231 230 231 231 226 222 222 219 216 214 186 152 165 182 187 181 168 159 156 154 154 156 154 149 146 145 144 142 143 151
329 327 324 320 317 317 318 318 316 313 310 308 306 305 303 300 299 298 296 293 291 288 286 282 278 276 273 267 260 256 252 246 239 232 228 225 222 221 221 222 224 226 226 227 227 225 225 225 225 222 220 225 238 221 173 149 146 162 179 186 179 166 158 154 152 151 148 144 140 138 137 139 143 150
331 328 325 322 319 319 319 319 317 313 309 307 306 305 304 302 301 299 296 294 293 292 289 286 282 279 276 270 263 256 250 242 235 229 225 222 220 220 220 219 220 221 223 224 222 220 219 221 221 218 218 228 237 193 148 134 127 136 154 173 182 176 167 161 155 149 145 144 142 135 131 132 137 142
334 331 328 324 321 320 320 320 318 314 311 309 307 306 304 303 300 299 298 297 296 294 291 287 284 282 277 272 265 256 245 236 231 226 222 220 220 220 218 217 217 220 221 219 216 215 218 221 221 222 222 216 195 164 141 128 120 123 132 149 168 172 168 164 161 155 150 149 144 134 126 128 131 135
335 333 330 328 324 322 321 321 318 315 312 311 309 307 306 304 302 301 301 300 299 297 294 291 290 288 284 279 269 254 238 229 224 220 218 218 218 217 216 215 217 219 218 215 212 212 216 221 221 217 208 191 174 158 140 129 125 119 118 128 143 154 158 159 158 154 152 152 148 139 132 134 136 140
335 332 331 330 328 324 322 320 318 316 314 312 310 308 307 306 305 305 305 304 304 304 304 302 300 297 293 286 269 245 232 225 221 217 215 214 214 216 216 212 211 215 217 214 210 208 211 216 211 196 184 177 168 153 133 129 128 122 118 121 123 128 135 141 143 144 146 149 150 146 143 144 145 149
334 332 332 331 328 325 323 321 319 318 315 314 313 311 310 309 308 307 307 307 306 308 309 307 304 302 299 289 260 237 230 223 217 215 212 208 210 215 216 207 203 208 206 194 187 192 194 192 187 180 173 165 154 139 128 126 125 121 121 121 120 121 123 127 129 131 132 138 145 146 144 142 144 148
334 332 331 331 329 327 325 323 321 319 317 316 315 314 313 313 312 310 310 310 309 310 310 307 305 306 305 292 258 238 233 223 215 211 207 203 204 207 209 205 203 201 192 176 167 168 170 169 168 163 154 143 136 130 127 126 125 122 121 120 120 121 121 120 121 120 118 121 134 142 141 140 143 145